[[{"header":{"parameterUnit":"m.s-1","parameterCategory":1,"la1":30.2992,"la2":30.254,"lo1":-89.0895,"lo2":-89.0443,"dy":0.0025,"dx":0.0025,"nx":19,"ny":19,"refTime":"2026-04-29T09:00:00:Z","depth":0,"parameterNumber":2,"parameterNumberName":"U-component_of_WINDS"},"data":[0,0,0,0.1333,0.1336,0.1508,0.1509,0.1734,0.1736,0,0,0,0,0,0,0,0,0,0,0,0.1282,0.1284,0.1332,0.1337,0.1508,0.1509,0.1733,0.1736,0,0,0,0,0,0,0,0,0,0,0,0.1282,0.1283,0.1285,0.1337,0.1508,0.1509,0.1733,0.1602,0,0,0,0,0,0,0,0,0,0,0.1435,0.1388,0.1283,0.1285,0.1338,0.1507,0.1509,0.1596,0.161,0.1657,0,0.1696,0,0.1719,0.1751,0.1752,0,0,0,0.1337,0.1376,0.1421,0.1286,0.134,0.1507,0.1431,0.1604,0.162,0.1677,0.17,0.1708,0.1723,0.1752,0.1753,0.2014,0.2015,0,0,0.1328,0.1315,0.141,0.1432,0.1402,0.1425,0.1436,0.1614,0.164,0.17,0.1713,0.1727,0.1754,0.1755,0.2013,0.2014,0,0,0,0.13,0.1308,0.1349,0.1423,0.1453,0.143,0.1443,0.1632,0.1646,0.1716,0.1729,0.1755,0.1758,0.2012,0.2013,0.2059,0,0,0,0.1294,0.1292,0.1344,0.1338,0.145,0.1544,0.1457,0.1633,0.1654,0.1728,0.1755,0.176,0.201,0.2013,0.2055,0.2084,0,0,0,0.1271,0.1289,0.1313,0.1337,0.141,0.1541,0.1566,0.1638,0.1662,0.1752,0.1761,0.2009,0.2012,0.2051,0.2078,0.215,0,0,0,0.1243,0.1353,0.1314,0.1442,0.1408,0.1566,0.1565,0.1684,0.1766,0.1756,0.201,0.2013,0.205,0.2075,0.2146,0.2209,0.2233,0,0,0.1375,0.1369,0.1445,0.1415,0.1576,0.1541,0.171,0.18,0.1822,0.1949,0.1956,0.2056,0.2078,0.2149,0.2369,0.2388,0,0,0,0.1482,0.1537,0.1583,0.1658,0.1726,0.1787,0.1851,0.1884,0.1992,0.1883,0.21,0.2114,0.2156,0.2187,0.2204,0.2242,0.2026,0.2026,0.2025,0.1653,0.1672,0.18,0.1839,0.1912,0.1974,0.2036,0.2092,0.2092,0.2142,0.2182,0.2313,0.2348,0.2361,0.24,0.2214,0.2215,0.2215,0.2215,0.185,0.1932,0.1925,0.2046,0.2066,0.217,0.2234,0.223,0.2332,0.2285,0.2323,0.2274,0.2381,0.2417,0.2218,0.2218,0.2217,0.2217,0.2217,0.1967,0.2009,0.2044,0.2153,0.2235,0.2271,0.2367,0.2382,0.2397,0.2434,0.2479,0.2478,0.2482,0.2453,0.2454,0.2454,0.2455,0.2455,0.2455,0.2076,0.2113,0.2191,0.2269,0.2318,0.2385,0.2447,0.2497,0.2557,0.256,0.2561,0.2558,0.2386,0.2344,0.2463,0.2461,0.246,0.246,0.2459,0.2275,0.2231,0.2351,0.24,0.2493,0.2574,0.2589,0.2689,0.2732,0.278,0.2766,0.2636,0.2633,0.262,0.2586,0.276,0.276,0.276,0.276,0.2376,0.2373,0.2498,0.2575,0.2653,0.2677,0.2815,0.2863,0.2908,0.2936,0.2912,0.2867,0.2853,0.2858,0.284,0.2809,0.3035,0.3036,0.3036,0.25,0.2505,0.2619,0.2657,0.2729,0.2792,0.2923,0.3014,0.3055,0.3047,0.2959,0.2948,0.2875,0.2849,0.2845,0.2817,0.2759,0,0]},{"header":{"parameterUnit":"m.s-1","parameterCategory":1,"la1":30.2992,"la2":30.254,"lo1":-89.0895,"lo2":-89.0443,"dy":0.0025,"dx":0.0025,"nx":19,"ny":19,"refTime":"2026-04-29T09:00:00:Z","depth":0,"parameterNumber":3,"parameterNumberName":"V-component_of_WINDS"},"data":[0,0,0,5.71,5.7103,5.7273,5.7273,5.7492,5.7494,0,0,0,0,0,0,0,0,0,0,0,5.7054,5.7056,5.7099,5.7104,5.7273,5.7273,5.7492,5.7494,0,0,0,0,0,0,0,0,0,0,0,5.7053,5.7055,5.7057,5.7104,5.7273,5.7273,5.7491,5.7362,0,0,0,0,0,0,0,0,0,0,5.7197,5.716,5.7055,5.7057,5.7105,5.7272,5.7273,5.7356,5.737,5.7417,0,5.7464,0,5.7483,5.7509,5.751,0,0,0,5.7099,5.7148,5.719,5.7058,5.7107,5.7272,5.7195,5.7364,5.738,5.7437,5.7467,5.7475,5.7486,5.7511,5.7512,5.7807,5.7809,0,0,5.709,5.7086,5.7179,5.7201,5.7178,5.719,5.72,5.7373,5.7405,5.7467,5.748,5.749,5.7512,5.7514,5.7806,5.7808,0,0,0,5.7066,5.708,5.7117,5.7192,5.7222,5.7195,5.7207,5.7397,5.741,5.7482,5.7492,5.7513,5.7516,5.7804,5.7807,5.7883,0,0,0,5.706,5.7066,5.7113,5.7112,5.722,5.7313,5.7227,5.7398,5.7417,5.7491,5.7514,5.7518,5.7803,5.7806,5.7877,5.7919,0,0,0,5.7041,5.7063,5.709,5.7112,5.7185,5.731,5.7332,5.7402,5.7424,5.751,5.7519,5.7801,5.7805,5.7872,5.791,5.7996,0,0,0,5.7019,5.7153,5.7091,5.7244,5.7184,5.7357,5.7331,5.7459,5.7542,5.7515,5.7803,5.7806,5.787,5.7905,5.7991,5.8069,5.8101,0,0,5.7185,5.7173,5.7263,5.7213,5.7397,5.7331,5.7525,5.7602,5.7612,5.7741,5.7748,5.7879,5.791,5.7995,5.8281,5.8307,0,0,0,5.7314,5.738,5.7429,5.751,5.7575,5.7633,5.7683,5.7711,5.7822,5.7679,5.7933,5.7951,5.8002,5.8039,5.8061,5.8104,5.7823,5.7823,5.7823,5.7543,5.7552,5.7703,5.7732,5.781,5.7861,5.7924,5.7971,5.7954,5.8014,5.8053,5.8226,5.8269,5.8285,5.8331,5.8094,5.8094,5.8095,5.8095,5.7788,5.7882,5.786,5.7998,5.8005,5.812,5.8173,5.8158,5.8265,5.8197,5.8242,5.8167,5.8313,5.8353,5.8101,5.81,5.8099,5.8098,5.8098,5.794,5.7986,5.8021,5.814,5.8229,5.8253,5.8357,5.8359,5.8361,5.8405,5.8446,5.8445,5.8444,5.8425,5.8425,5.8426,5.8427,5.8427,5.8427,5.8083,5.812,5.821,5.8291,5.8344,5.8413,5.8465,5.8516,5.8572,5.8565,5.8566,5.8543,5.8327,5.8272,5.8437,5.8435,5.8434,5.8433,5.8432,5.8328,5.8274,5.8412,5.8465,5.8561,5.865,5.8652,5.8755,5.8797,5.8848,5.8817,5.8657,5.8642,5.8625,5.858,5.8815,5.8815,5.8815,5.8815,5.8456,5.845,5.8593,5.8678,5.8761,5.8777,5.8931,5.8973,5.9007,5.9033,5.8999,5.894,5.8922,5.8918,5.8895,5.8853,5.9152,5.9152,5.9152,5.8608,5.8611,5.8743,5.8779,5.8854,5.8918,5.9063,5.9159,5.9185,5.9166,5.9054,5.9039,5.8943,5.8912,5.8889,5.8852,5.8776,0,0]}]]